Location: Azul
(36.7830°S, 59.8500°W)
Time: 00:12:47
(UTC-03:00)

ZACube-1 - Pass Details

Date: 28 October 2021
Orbit: 583 x 664 km, 97.6° (Epoch: 30 November)

Event Time Altitude Azimuth Distance (km) Brightness Sun altitude
Rises 03:23:01 0° 60° (ENE) 2,950 ? -27.4°
Reaches altitude 10° 03:26:13 10° 85° (E) 2,067 ? -27.0°
Maximum altitude 03:28:28 14° 115° (ESE) 1,842 ? -26.7°
Drops below altitude 10° 03:30:44 10° 145° (SE) 2,099 ? -26.3°
Sets 03:34:01 0° 170° (S) 3,032 ? -25.9°
